EW1514 Weather Reports


Display with metric or nautical units.
time (UTC)temp
F
wind
direction
speed
MPH
gust
MPH
rain 1hr
in
rain 24hr
in
rain mn
in
humidity
%
barometer
mb
20260507151531 71 265 1.0 6.0 0.00 0.01 0.01 54 1016.9
20260507150030 71 282 1.0 5.0 0.00 0.01 0.01 52 1016.8
20260507144533 72 205 2.0 5.0 0.00 0.01 0.01 52 1016.9
20260507143031 71 286 2.0 4.0 0.00 0.01 0.01 53 1016.8
20260507141523 71 309 1.0 6.0 0.00 0.01 0.01 54 1016.8
20260507140022 70 348 2.0 8.0 0.00 0.01 0.01 55 1016.7
20260507134521 69 74 1.0 6.0 0.00 0.01 0.01 57 1016.7
20260507133017 68 22 1.0 8.0 0.00 0.01 0.01 58 1016.7
20260507131516 68 63 1.0 4.0 0.00 0.01 0.01 58 1017.0
20260507130014 67 52 0.0 4.0 0.00 0.01 0.01 61 1017.0
20260507124517 67 54 4.0 11.0 0.00 0.01 0.01 62 1016.8
20260507123015 67 42 4.0 7.0 0.00 0.01 0.01 67 1017.4
20260507121622 65 23 0.0 10.0 0.00 0.01 0.01 69 1017.7
20260507120011 66 74 3.0 11.0 0.01 0.01 0.01 70 1018.0
20260507114511 67 88 2.0 5.0 0.01 0.01 0.01 72 1018.3
20260507113014 67 331 0.0 1.0 0.01 0.01 0.01 69 1018.6
20260507111509 67 331 0.0 1.0 0.01 0.01 0.01 67 1018.7
20260507110007 68 331 0.0 2.0 0.00 0.00 0.00 66 1018.6
20260507104507 68 331 1.0 3.0 0.00 0.00 0.00 64 1018.4
20260507103008 68 320 1.0 6.0 0.00 0.00 0.00 63 1018.6
20260507101512 69 298 3.0 5.0 0.00 0.00 0.00 61 1018.5
20260507100006 69 309 3.0 4.0 0.00 0.00 0.00 61 1018.4
20260507094502 69 294 0.0 4.0 0.00 0.00 0.00 63 1018.3
20260507093059 69 259 2.0 4.0 0.00 0.00 0.00 61 1018.1
20260507091557 68 248 0.0 1.0 0.00 0.00 0.00 62 1017.7
20260507090100 68 248 0.0 3.0 0.00 0.00 0.00 64 1017.5
20260507084600 68 284 1.0 4.0 0.00 0.00 0.00 65 1017.5
20260507083051 68 190 0.0 5.0 0.00 0.00 0.00 65 1017.3
20260507081551 69 206 2.0 5.0 0.00 0.00 0.00 63 1017.1
20260507080104 69 234 3.0 5.0 0.00 0.00 0.00 59 1017.0
20260507074545 69 250 0.0 3.0 0.00 0.00 0.00 59 1016.7
20260507073050 69 115 0.0 1.0 0.00 0.00 0.00 62 1016.4
20260507071542 68 278 0.0 3.0 0.00 0.00 0.00 65 1016.6
20260507070041 68 203 1.0 4.0 0.00 0.00 0.00 66 1016.6
20260507064535 67 192 2.0 6.0 0.00 0.00 0.00 66 1016.7
20260507063034 68 229 2.0 6.0 0.00 0.00 0.00 64 1016.7
20260507061532 67 213 2.0 5.0 0.00 0.00 0.00 61 1016.7
20260507060027 67 220 1.0 4.0 0.00 0.00 0.00 63 1016.5
20260507054530 65 338 0.0 2.0 0.00 0.00 0.00 68 1016.2
20260507053019 63 339 0.0 0.0 0.00 0.00 0.00 71 1016.3
20260507051516 62 339 0.0 0.0 0.00 0.00 0.00 72 1016.1
20260507050012 61 339 0.0 2.0 0.00 0.00 0.00 74 1016.1
20260507044508 59 339 0.0 0.0 0.00 0.00 0.00 77 1016.2
20260507043009 58 339 0.0 1.0 0.00 0.00 0.00 78 1016.2
20260507041601 57 338 0.0 0.0 0.00 0.00 0.00 78 1016.1
20260507034558 57 43 0.0 1.0 0.00 0.00 0.00 77 1015.8
20260507033059 57 43 0.0 0.0 0.00 0.00 0.00 76 1015.6
20260507031552 57 43 0.0 0.0 0.00 0.00 0.00 76 1015.6
20260507030051 57 43 0.0 0.0 0.00 0.00 0.00 76 1015.6
20260507024603 57 43 0.0 0.0 0.00 0.00 0.00 77 1015.4
20260507023051 57 43 0.0 2.0 0.00 0.00 0.00 78 1015.3
20260507021548 57 65 0.0 3.0 0.00 0.00 0.00 79 1015.1
20260507020106 57 309 0.0 0.0 0.00 0.00 0.00 80 1015.3
20260507014552 57 309 0.0 0.0 0.00 0.00 0.00 80 1015.1
20260507013052 57 298 0.0 2.0 0.00 0.00 0.00 80 1015.1
20260507011545 58 276 0.0 0.0 0.00 0.00 0.00 79 1015.1
20260507010045 58 276 0.0 0.0 0.00 0.00 0.00 79 1015.0
20260507004552 58 276 0.0 2.0 0.00 0.00 0.00 79 1014.8
20260507003044 59 276 0.0 3.0 0.00 0.00 0.00 80 1014.8
20260507001545 59 88 1.0 4.0 0.00 0.00 0.00 80 1014.7
20260507000037 59 81 1.0 4.0 0.00 0.00 0.00 80 1014.9
20260506234539 59 37 0.0 2.0 0.00 0.00 0.00 80 1015.2
20260506233034 59 33 0.0 0.0 0.00 0.00 0.00 79 1015.2
20260506231533 59 50 0.0 0.0 0.00 0.00 0.00 79 1015.2
20260506230037 59 50 0.0 2.0 0.00 0.00 0.00 79 1015.1
20260506224533 60 111 0.0 0.0 0.00 0.00 0.00 78 1015.2
20260506223039 60 111 0.0 2.0 0.00 0.00 0.00 78 1015.2
20260506221526 61 60 0.0 0.0 0.00 0.00 0.00 79 1015.2
20260506220025 61 60 0.0 2.0 0.00 0.00 0.00 79 1015.2
20260506214536 62 60 0.0 3.0 0.00 0.00 0.00 78 1015.2
20260506213021 62 58 0.0 1.0 0.00 0.00 0.00 78 1015.4
20260506211518 62 35 0.0 0.0 0.00 0.00 0.00 77 1015.4
20260506210020 62 35 0.0 0.0 0.00 0.00 0.00 77 1015.4
20260506204515 62 35 0.0 0.0 0.00 0.00 0.00 76 1015.7
20260506203018 62 35 0.0 0.0 0.00 0.00 0.00 76 1015.4
20260506201515 62 35 0.0 2.0 0.00 0.00 0.00 76 1015.3
20260506200013 62 32 1.0 3.0 0.00 0.00 0.00 75 1015.2
20260506194513 63 69 0.0 0.0 0.00 0.00 0.00 75 1015.0
20260506193014 63 69 0.0 0.0 0.00 0.00 0.00 76 1014.8
20260506191511 64 69 0.0 1.0 0.00 0.00 0.00 76 1014.8
20260506190014 64 68 0.0 1.0 0.00 0.00 0.00 76 1014.7
20260506184517 64 69 0.0 4.0 0.00 0.00 0.00 75 1014.6
20260506183018 65 74 1.0 3.0 0.00 0.00 0.00 75 1014.5
20260506181514 65 248 0.0 2.0 0.00 0.00 0.00 74 1014.4
20260506180008 66 248 0.0 3.0 0.00 0.00 0.00 74 1014.2
20260506174507 66 248 0.0 3.0 0.00 0.00 0.00 73 1014.0
20260506173007 67 248 1.0 5.0 0.00 0.00 0.00 71 1013.8
20260506171507 67 259 1.0 5.0 0.00 0.00 0.00 69 1013.7
20260506170005 68 163 2.0 5.0 0.00 0.00 0.00 68 1013.6
20260506164508 69 240 2.0 6.0 0.00 0.00 0.00 66 1013.6
20260506163002 70 228 3.0 8.0 0.00 0.00 0.00 64 1013.7
20260506161501 71 275 5.0 10.0 0.00 0.00 0.00 61 1013.7
20260506160001 72 271 3.0 8.0 0.00 0.00 0.00 58 1013.6
20260506154604 72 242 3.0 7.0 0.00 0.00 0.00 56 1013.7
20260506153113 73 228 4.0 9.0 0.00 0.00 0.00 53 1013.8